Погода в Сёдертелье

Швеция     59°12′05″N   17°35′58″E
темп.,
°C
ветер,
м/с
пор.,
м/с
влажн.,
%
обл.,
%
осадки,
мм/ч
давл.,
гПа
погр.,
м
27 января, ср
ср2701:00−6сз598999 0.0 1006299
04:00−6сз5988100 0.0 1006265
07:00−7сз478792 0.0 1006187
10:00−6сз358411 0.0 1006170
13:00−5сз24775 0.0 1006165
16:00−6ссз22830 0.0 100624
19:00−7с11860 0.0 100621
22:00−7св118720 0.0 100621
28 января, чт
чт2801:00−7св228859 0.0 100663
04:00−6ссв2492100 0.0 1004126
07:00−6ссв3593100 0.1 1004208
10:00−5ссв5894100 2.4 1002331
13:00−4с71194100 4.9 1001575
16:00−4с71294100 1.9 1000653
19:00−4с71395100 3.0 999654
22:00−4ссз71394100 2.2 999616
29 января, пт
пт2901:00−3с61196100 3.7 1000478
04:00−3с61195100 1.8 999597
07:00−6ссз61095100 3.4 1000424
10:00−6ссз71194100 1.4 1000438
13:00−7ссз61189100 1.7 1000375
16:00−9ссз5991100 0.0 1000320
19:00−11сз489296 0.0 1001219
22:00−12сз489047 0.0 1000186
30 января, сб
сб3001:00−13сз488729 0.0 1000190
04:00−14сз488639 0.0 998191
07:00−14сз478828 0.0 998177
10:00−13сз478615 0.0 997218
13:00−11сз468541 0.0 997284
16:00−11сз379389 0.0 996294
19:00−11сз379491 0.1 996255
22:00−10сз389487 0.1 996310
31 января, вс
вс3101:00−9сз489186 0.1 996346
04:00−9сз488785 0.0 996325
07:00−8сз488389 0.0 996307
10:00−8сз477995 0.0 997219
13:00−6сз477982 0.0 997266
16:00−7зсз368643 0.0 998102
19:00−8зсз349028 0.0 99869
22:00−9зсз33900 0.0 99943